Weather in Vişniovca

Moldova     46°19′56″N   28°26′53″E
temp.,
°C
wind,
m/s
gust,
m/s
humid.,
%
clouds,
%
prec.,
mm/h
press.,
hPa
HPBL,
m
14 may, fri
fri1400:00+10sse4117944 0.0 1008231
03:00+10sse4984100 0.0 1007191
06:00+11sse4790100 0.3 1006215
09:00+15s687714 0.6 1006595
12:00+20ssw785144 0.1 10071781
15:00+19sw4755100 0.2 1007340
18:00+18ssw235999 0.0 100740
21:00+14wnw3476100 0.1 100992
15 may, sat
sat1500:00+12wsw22812 0.0 101020
03:00+11sw22772 0.0 101111
06:00+11s22795 0.0 101110
09:00+17ssw23631 0.0 1012409
12:00+21ssw45474 0.0 10121705
15:00+23sw45394 0.0 10112067
18:00+22sw124798 0.2 1010663
21:00+16ese347112 0.4 101157
16 may, sun
sun1600:00+14sse35755 0.0 101177
03:00+13sse2279100 0.0 101114
06:00+12ese1179100 0.0 101111
09:00+17ese3568100 0.0 1012366
12:00+22se554896 0.0 10111355
15:00+24se543885 0.0 10092176
18:00+23se554184 0.0 10071745
21:00+17se3565100 0.0 100786
17 may, mon
mon1700:00+16s3469100 0.0 100765
03:00+14w1179100 0.2 100710
06:00+14nw248370 0.0 1006104
09:00+15nw5986100 0.3 1008470
12:00+20nnw67556 0.0 10081367
15:00+22wnw5645100 0.0 10082117
18:00+22nw34460 0.0 10081296
21:00+17ese116058 0.0 100811
18 may, tue
tue1800:00+15se22661 0.0 100915
03:00+14se35745 0.0 100889
06:00+14sse388481 0.1 1007174
09:00+18ssw337096 0.1 1007389
12:00+21w5552100 0.0 10081021
15:00+23ssw7748100 0.0 10071664
18:00+16wsw36805 0.9 1007266
21:00+16sw2379100 0.9 100966